[[{"header":{"parameterUnit":"m.s-1","parameterCategory":2,"la1":30.2991,"la2":30.254,"lo1":-89.0895,"lo2":-89.0444,"dy":0.0017,"dx":0.0017,"nx":28,"ny":28,"refTime":"2023-04-26T15:00:00:Z","depth":"0","parameterNumber":2,"parameterNumberName":"U-component_of_CURRENTS"},"data":[0,0,0,0,0,0,0,0,0,0,0,0,0,0,0,0,0,0,0,0,0,0,0,0,0,0,0,0,0,0,0,0,0,0,0,0,0,0,0,0,0,0,0,0,0,0,0,0,0,0,0,0,0,0,0,0,0,0,0.2805,0.2805,0,0.2694,0.2692,0.2691,0.2691,0.2692,0.2694,0.2696,0.2683,0.2682,0.268,0,0,0,0,0,0,0,0,0,0,0,0,0,0.2929,0.2927,0.2806,0.2804,0.2803,0.2694,0.2692,0.269,0.269,0.2692,0.2694,0.2696,0.2684,0.2682,0.268,0,0,0,0,0,0,0,0,0,0,0,0,0,0.285,0.2927,0.2806,0.2792,0.279,0.2694,0.2692,0.269,0.269,0.2692,0.2695,0.2697,0.2685,0.2682,0.2679,0.2611,0,0,0.2671,0.2669,0,0,0,0,0,0,0,0,0.2855,0.2845,0.2795,0.2793,0.279,0.2711,0.2731,0.2669,0.2689,0.2725,0.2696,0.2698,0.2702,0.2698,0.2666,0.261,0.261,0.267,0.2669,0.2667,0.2667,0,0,0,0,0,0,0,0.286,0.2849,0.2759,0.2794,0.2791,0.2761,0.2753,0.2719,0.27,0.2722,0.2722,0.2713,0.2701,0.2668,0.2666,0.261,0.267,0.2668,0.2666,0.2665,0.2564,0.2563,0,0,0,0,0,0,0.2881,0.2855,0.2762,0.2756,0.2832,0.2757,0.2748,0.2732,0.2698,0.2696,0.2711,0.2714,0.2672,0.2669,0.2666,0.2643,0.2667,0.2665,0.2663,0.2565,0.2564,0.2563,0,0,0,0,0,0,0.2884,0.2873,0.2767,0.2806,0.279,0.2753,0.2734,0.2728,0.2709,0.269,0.2689,0.2701,0.2674,0.267,0.265,0.2641,0.2663,0.2661,0.2566,0.2565,0.2563,0.256,0,0,0,0,0,0,0.2887,0.2874,0.2863,0.2807,0.2789,0.272,0.2732,0.2724,0.27,0.2703,0.268,0.2681,0.2675,0.2654,0.2647,0.2638,0.2659,0.2567,0.2565,0.2564,0.2561,0.2559,0.2556,0,0,0,0,0,0.2892,0.2864,0.2863,0.2851,0.2776,0.2719,0.2707,0.2688,0.2698,0.2681,0.2674,0.2682,0.2638,0.265,0.2642,0.2632,0.2568,0.2566,0.2564,0.2562,0.2559,0.2556,0,0,0,0,0,0,0.2914,0.286,0.2858,0.2817,0.2779,0.2721,0.2695,0.2686,0.2659,0.2668,0.2662,0.266,0.2644,0.2629,0.2644,0.2597,0.2606,0.2602,0.2608,0.2604,0.2602,0.2605,0.2656,0,0,0,0,0,0.2913,0.2875,0.2832,0.2798,0.2781,0.2739,0.2713,0.27,0.2671,0.2662,0.2646,0.2632,0.262,0.261,0.2592,0.2553,0.2559,0.2543,0.254,0.2538,0.2534,0.2539,0.2538,0.2555,0.2556,0.2556,0,0,0.2908,0.2876,0.2854,0.28,0.2766,0.2722,0.2729,0.2688,0.2654,0.2664,0.2618,0.2623,0.261,0.2581,0.2571,0.2572,0.2535,0.2536,0.2534,0.2531,0.2537,0.2535,0.2534,0.2554,0.2554,0.2555,0,0,0.2876,0.2857,0.2815,0.2783,0.2739,0.2709,0.2703,0.265,0.2636,0.2588,0.2603,0.2608,0.2554,0.2559,0.2552,0.2519,0.2528,0.251,0.2491,0.2496,0.2495,0.2494,0.2501,0.2501,0.2502,0.2502,0.2502,0,0.2882,0.2821,0.2795,0.2752,0.272,0.2707,0.266,0.263,0.258,0.2571,0.2577,0.2544,0.2544,0.2532,0.2526,0.2516,0.2517,0.2508,0.2495,0.2494,0.2493,0.25,0.25,0.2501,0.2501,0.2501,0.2501,0,0.2812,0.2773,0.2747,0.2687,0.265,0.2608,0.2572,0.2549,0.2535,0.2515,0.2503,0.2504,0.2494,0.2494,0.2496,0.2491,0.2494,0.25,0.2508,0.2492,0.2499,0.25,0.2501,0.2501,0.2501,0.2501,0,0,0.2808,0.2716,0.2709,0.2678,0.2614,0.2578,0.2531,0.2488,0.2478,0.245,0.2435,0.2428,0.2456,0.245,0.2469,0.2471,0.2476,0.2477,0.2478,0.2494,0.2485,0.2512,0.2515,0.2479,0.2479,0.2479,0.2493,0,0.2767,0.2678,0.2638,0.2564,0.2518,0.2497,0.2453,0.2424,0.2411,0.2399,0.2419,0.2415,0.243,0.2444,0.2447,0.2479,0.2475,0.2472,0.2489,0.2489,0.2525,0.2516,0.2564,0.2583,0.2493,0.2493,0.2493,0,0.2707,0.2661,0.2573,0.2508,0.2489,0.2448,0.2405,0.2369,0.2361,0.2356,0.2369,0.2389,0.2408,0.242,0.2449,0.2445,0.2457,0.2473,0.2474,0.2501,0.2517,0.2583,0.2587,0.26,0.2494,0.2494,0.2494,0,0.2697,0.2616,0.2546,0.2519,0.2444,0.2418,0.2389,0.2363,0.2342,0.2349,0.2347,0.2372,0.2392,0.241,0.2456,0.2447,0.2488,0.2483,0.2512,0.2514,0.2559,0.2566,0.2588,0.2483,0.2483,0.2483,0.2483,0,0.2656,0.2611,0.2545,0.2507,0.2457,0.2412,0.2371,0.2355,0.2337,0.2323,0.234,0.2342,0.2388,0.2421,0.2449,0.2495,0.2485,0.2508,0.2519,0.2559,0.2565,0.2581,0.2595,0.2483,0.2483,0.2483,0.2483,0,0.2644,0.2594,0.2524,0.2456,0.2441,0.241,0.2356,0.2337,0.2323,0.2309,0.2311,0.2326,0.2369,0.2421,0.2467,0.2493,0.2483,0.2544,0.2592,0.2608,0.2637,0.2649,0.2373,0.2298,0.2568,0.2569,0.257,0,0.2612,0.2568,0.2498,0.2464,0.2434,0.239,0.2361,0.2335,0.2316,0.2298,0.2294,0.2328,0.2346,0.2434,0.2515,0.2579,0.2487,0.2644,0.2632,0.2646,0.2666,0.2387,0.2323,0.269,0.2691,0.2693,0.2694,0,0.2557,0.2537,0.2491,0.2439,0.2402,0.2359,0.2321,0.2311,0.2287,0.2281,0.228,0.2294,0.2378,0.2476,0.2572,0.2618,0.2553,0.267,0.2675,0.2756,0.246,0.2394,0.267,0.2705,0.2704,0.2703,0.2703,0.2702,0.2523,0.2493,0.244,0.2409,0.2361,0.2328,0.23,0.2286,0.2272,0.2265,0.2273,0.231,0.244,0.2581,0.267,0.2814,0.258,0.2796,0.2806,0.2512,0.2437,0.2735,0.2788,0.2787,0.2786,0.2786,0.2786,0,0.2493,0.2464,0.2408,0.2355,0.2316,0.2307,0.2267,0.2242,0.2246,0.2279,0.2279,0.2411,0.2539,0.2695,0.29,0.2962,0.276,0.2929,0.2608,0.2539,0.2854,0.2869,0.2953,0.2953,0.2953,0.2953,0.2953,0.2953,0.2467,0.2432,0.2422,0.2347,0.2305,0.2244,0.2234,0.2208,0.2214,0.2263,0.2345,0.2393,0.2577,0.2879,0.3072,0.3069,0.2831,0.2708,0.2588,0.2969,0.2956,0.2944,0.296,0.3062,0.3063,0.214,0.2135,0.2131]},{"header":{"parameterUnit":"m.s-1","parameterCategory":2,"la1":30.2991,"la2":30.254,"lo1":-89.0895,"lo2":-89.0444,"dy":0.0017,"dx":0.0017,"nx":28,"ny":28,"refTime":"2023-04-26T15:00:00:Z","depth":"0","parameterNumber":3,"parameterNumberName":"V-component_of_CURRENTS"},"data":[0,0,0,0,0,0,0,0,0,0,0,0,0,0,0,0,0,0,0,0,0,0,0,0,0,0,0,0,0,0,0,0,0,0,0,0,0,0,0,0,0,0,0,0,0,0,0,0,0,0,0,0,0,0,0,0,0,0,-0.1507,-0.1506,0,-0.1502,-0.1502,-0.1502,-0.1488,-0.1488,-0.1488,-0.1487,-0.1534,-0.1536,-0.1537,0,0,0,0,0,0,0,0,0,0,0,0,0,-0.1526,-0.1526,-0.1507,-0.1506,-0.1506,-0.1502,-0.1502,-0.1502,-0.1488,-0.1488,-0.1488,-0.1487,-0.1533,-0.1535,-0.1537,0,0,0,0,0,0,0,0,0,0,0,0,0,-0.152,-0.1525,-0.1507,-0.1498,-0.1497,-0.1502,-0.1502,-0.1502,-0.1489,-0.1488,-0.1487,-0.1487,-0.1533,-0.1535,-0.1538,-0.1564,0,0,-0.1545,-0.1546,0,0,0,0,0,0,0,0,-0.152,-0.1519,-0.15,-0.1499,-0.1498,-0.1494,-0.1526,-0.1525,-0.1489,-0.1493,-0.1487,-0.1487,-0.1525,-0.1528,-0.1529,-0.1566,-0.1568,-0.1545,-0.1547,-0.1548,-0.1548,0,0,0,0,0,0,0,-0.1521,-0.152,-0.1506,-0.1499,-0.1498,-0.1502,-0.1501,-0.1526,-0.1514,-0.1493,-0.1491,-0.1489,-0.1525,-0.1527,-0.1531,-0.1569,-0.1545,-0.1547,-0.1549,-0.155,-0.1665,-0.1667,0,0,0,0,0,0,-0.1519,-0.152,-0.1506,-0.1505,-0.1507,-0.1502,-0.1501,-0.1497,-0.1513,-0.1514,-0.149,-0.1489,-0.1523,-0.1528,-0.1532,-0.1577,-0.1548,-0.155,-0.1551,-0.1663,-0.1665,-0.1667,0,0,0,0,0,0,-0.1519,-0.1517,-0.1506,-0.1512,-0.1511,-0.1502,-0.1498,-0.1497,-0.1505,-0.151,-0.1512,-0.15,-0.1523,-0.1529,-0.1556,-0.1579,-0.1551,-0.1553,-0.1662,-0.1664,-0.1666,-0.166,0,0,0,0,0,0,-0.152,-0.1518,-0.1518,-0.1512,-0.151,-0.1513,-0.1499,-0.1497,-0.1504,-0.1502,-0.1519,-0.1522,-0.1523,-0.1553,-0.1559,-0.1581,-0.1555,-0.1659,-0.1663,-0.1666,-0.1658,-0.1662,-0.1665,0,0,0,0,0,-0.152,-0.1524,-0.1518,-0.1516,-0.1509,-0.1514,-0.1514,-0.1507,-0.1505,-0.1512,-0.152,-0.1522,-0.1577,-0.1556,-0.1562,-0.1586,-0.1658,-0.1662,-0.1665,-0.1657,-0.1661,-0.1665,0,0,0,0,0,0,-0.1546,-0.1523,-0.1516,-0.1516,-0.1516,-0.1511,-0.1515,-0.1515,-0.1528,-0.1526,-0.1535,-0.1539,-0.1569,-0.1588,-0.1564,-0.1633,-0.1622,-0.1627,-0.1613,-0.1618,-0.1621,-0.1599,-0.1557,0,0,0,0,0,-0.1548,-0.1538,-0.1528,-0.1531,-0.1528,-0.1525,-0.1528,-0.1523,-0.153,-0.1534,-0.1545,-0.1567,-0.1591,-0.161,-0.1627,-0.1668,-0.1674,-0.1693,-0.1696,-0.1699,-0.1688,-0.1729,-0.1734,-0.1679,-0.1679,-0.1679,0,0,-0.1558,-0.1547,-0.1541,-0.1535,-0.1531,-0.1529,-0.1526,-0.153,-0.1534,-0.154,-0.1556,-0.1573,-0.1602,-0.1634,-0.1653,-0.1653,-0.1719,-0.1704,-0.1705,-0.1693,-0.1733,-0.1738,-0.1742,-0.1682,-0.1681,-0.1681,0,0,-0.157,-0.1564,-0.1554,-0.1551,-0.1544,-0.1541,-0.1546,-0.1544,-0.1549,-0.1566,-0.1574,-0.1603,-0.1639,-0.1661,-0.1679,-0.1721,-0.1727,-0.1741,-0.1748,-0.1788,-0.1792,-0.1795,-0.1802,-0.1806,-0.1752,-0.1752,-0.1752,0,-0.1585,-0.1567,-0.1558,-0.155,-0.1545,-0.1548,-0.1543,-0.1554,-0.1564,-0.1574,-0.157,-0.1626,-0.1648,-0.1695,-0.1706,-0.1726,-0.1739,-0.1723,-0.1789,-0.1793,-0.1797,-0.1803,-0.1808,-0.1753,-0.1753,-0.1753,-0.1753,0,-0.1583,-0.1571,-0.157,-0.1551,-0.1552,-0.1552,-0.1554,-0.1567,-0.1573,-0.1581,-0.1617,-0.1645,-0.1679,-0.1703,-0.1712,-0.1765,-0.1761,-0.1777,-0.1769,-0.1801,-0.1807,-0.1812,-0.1753,-0.1753,-0.1753,-0.1753,0,0,-0.1609,-0.1571,-0.1572,-0.1554,-0.1549,-0.1548,-0.1563,-0.1574,-0.1585,-0.1607,-0.1624,-0.1673,-0.1688,-0.1711,-0.1741,-0.1778,-0.1814,-0.1789,-0.1792,-0.1778,-0.188,-0.1845,-0.1847,-0.1845,-0.1846,-0.1847,-0.1869,0,-0.1609,-0.158,-0.1569,-0.1556,-0.1538,-0.1545,-0.1553,-0.1569,-0.1588,-0.1609,-0.1649,-0.1674,-0.1695,-0.1713,-0.1755,-0.1791,-0.1828,-0.1804,-0.1866,-0.1867,-0.1818,-0.1853,-0.1813,-0.1827,-0.1874,-0.1875,-0.1875,0,-0.1604,-0.1583,-0.1555,-0.1532,-0.1528,-0.1526,-0.1538,-0.155,-0.1587,-0.1599,-0.1639,-0.1666,-0.1717,-0.1732,-0.181,-0.1794,-0.1837,-0.1865,-0.1868,-0.1837,-0.1842,-0.1807,-0.1834,-0.1734,-0.1883,-0.1882,-0.1882,0,-0.16,-0.1574,-0.1546,-0.1538,-0.1519,-0.1518,-0.1521,-0.1546,-0.1556,-0.1597,-0.1603,-0.1668,-0.1689,-0.1758,-0.1806,-0.182,-0.1875,-0.1908,-0.1916,-0.1912,-0.189,-0.1882,-0.1811,-0.1973,-0.1973,-0.1972,-0.1972,0,-0.1592,-0.1576,-0.1538,-0.1523,-0.1501,-0.15,-0.1498,-0.1512,-0.1536,-0.1544,-0.1598,-0.1616,-0.1699,-0.174,-0.18,-0.1852,-0.1876,-0.1911,-0.1922,-0.1886,-0.1879,-0.18,-0.1758,-0.1973,-0.1973,-0.1973,-0.1973,0,-0.1588,-0.1563,-0.1527,-0.1498,-0.1489,-0.1475,-0.1467,-0.1468,-0.1494,-0.1507,-0.1517,-0.1577,-0.1631,-0.1695,-0.1788,-0.183,-0.1858,-0.1907,-0.1835,-0.1838,-0.1764,-0.1724,-0.1727,-0.1756,-0.1934,-0.1933,-0.1933,0,-0.1586,-0.1558,-0.1503,-0.1479,-0.1463,-0.1443,-0.1427,-0.144,-0.1443,-0.1483,-0.1484,-0.1539,-0.1572,-0.1666,-0.1749,-0.183,-0.1824,-0.184,-0.187,-0.1742,-0.1708,-0.1722,-0.1749,-0.1837,-0.1836,-0.1835,-0.1834,0,-0.158,-0.1548,-0.1513,-0.1452,-0.1419,-0.1393,-0.1377,-0.1368,-0.1389,-0.139,-0.1414,-0.1446,-0.1546,-0.1603,-0.1691,-0.1759,-0.1773,-0.1822,-0.1724,-0.1647,-0.1625,-0.1664,-0.1812,-0.1825,-0.1826,-0.1827,-0.1827,-0.1827,-0.1579,-0.1538,-0.1475,-0.1414,-0.1384,-0.1346,-0.1306,-0.1299,-0.1281,-0.1253,-0.132,-0.1286,-0.1394,-0.1525,-0.1626,-0.1655,-0.1724,-0.1644,-0.1613,-0.1644,-0.1649,-0.1752,-0.1756,-0.1757,-0.1757,-0.1758,-0.1758,0,-0.1557,-0.1494,-0.1445,-0.1367,-0.1318,-0.1313,-0.1269,-0.1212,-0.1163,-0.1123,-0.1116,-0.105,-0.1151,-0.1272,-0.1364,-0.1395,-0.1512,-0.1389,-0.1383,-0.1435,-0.1542,-0.1509,-0.1416,-0.1416,-0.1416,-0.1416,-0.1416,-0.1416,-0.154,-0.1454,-0.1404,-0.1305,-0.1266,-0.1173,-0.1131,-0.1061,-0.0997,-0.0843,-0.0727,-0.0677,-0.0599,-0.0825,-0.095,-0.1054,-0.112,-0.1139,-0.1185,-0.1186,-0.1207,-0.1227,-0.1183,-0.1024,-0.1024,-0.1116,-0.1115,-0.1115]}],[{"header":{"parameterUnit":"m.s-1","parameterCategory":2,"la1":30.2991,"la2":30.254,"lo1":-89.0895,"lo2":-89.0444,"dy":0.0017,"dx":0.0017,"nx":28,"ny":28,"refTime":"2023-04-26T15:00:00:Z","depth":"2","parameterNumber":2,"parameterNumberName":"U-component_of_CURRENTS"},"data":[0,0,0,0,0,0,0,0,0,0,0,0,0,0,0,0,0,0,0,0,0,0,0,0,0,0,0,0,0,0,0,0,0,0,0,0,0,0,0,0,0,0,0,0,0,0,0,0,0,0,0,0,0,0,0,0,0,0,0.2449,0.2449,0,0.2366,0.2365,0.2363,0.2295,0.2295,0.2294,0.2294,0.22,0.2198,0.2195,0,0,0,0,0,0,0,0,0,0,0,0,0,0.2491,0.249,0.2449,0.2449,0.2448,0.2366,0.2365,0.2363,0.2295,0.2295,0.2294,0.2294,0.2201,0.2198,0.2195,0,0,0,0,0,0,0,0,0,0,0,0,0,0.2441,0.249,0.2449,0.2409,0.2405,0.2367,0.2365,0.2362,0.2295,0.2295,0.2294,0.2294,0.2202,0.2198,0.2195,0.2178,0,0,0.2184,0.2182,0,0,0,0,0,0,0,0,0.2444,0.2439,0.2415,0.2412,0.2407,0.2346,0.2345,0.2302,0.2295,0.233,0.2294,0.2294,0.2252,0.2244,0.2221,0.2173,0.2169,0.2184,0.2181,0.218,0.2179,0,0,0,0,0,0,0,0.2448,0.2442,0.241,0.2415,0.241,0.2375,0.2368,0.2336,0.2289,0.2327,0.2323,0.2324,0.2249,0.2224,0.2218,0.2168,0.2184,0.2181,0.2178,0.2177,0.2147,0.2149,0,0,0,0,0,0,0.2473,0.2445,0.2413,0.2408,0.2432,0.2376,0.2367,0.2361,0.2289,0.228,0.2324,0.2321,0.223,0.2222,0.2214,0.2199,0.218,0.2177,0.2175,0.2146,0.2148,0.2149,0,0,0,0,0,0,0.2474,0.2471,0.2416,0.243,0.2422,0.2376,0.2369,0.236,0.2337,0.2288,0.2277,0.2314,0.223,0.2219,0.2191,0.2195,0.2175,0.2172,0.2145,0.2147,0.2148,0.2164,0,0,0,0,0,0,0.2476,0.2472,0.247,0.2432,0.2422,0.2396,0.237,0.2358,0.2341,0.2336,0.2276,0.2266,0.2229,0.2197,0.2188,0.219,0.2169,0.2143,0.2145,0.2148,0.2162,0.2166,0.217,0,0,0,0,0,0.2477,0.2472,0.247,0.2466,0.2423,0.2397,0.2387,0.235,0.2341,0.2329,0.2295,0.2268,0.2207,0.2194,0.2184,0.2185,0.2142,0.2145,0.2148,0.216,0.2165,0.217,0,0,0,0,0,0,0.2483,0.2465,0.2461,0.2449,0.2431,0.2387,0.2372,0.2357,0.2319,0.2312,0.227,0.2258,0.2244,0.2219,0.2206,0.2191,0.2176,0.2177,0.219,0.2195,0.2199,0.2227,0.2166,0,0,0,0,0,0.249,0.2482,0.2463,0.2454,0.2447,0.2415,0.2399,0.2377,0.2344,0.2326,0.2289,0.2261,0.2248,0.2224,0.2206,0.218,0.2197,0.2183,0.2187,0.2191,0.2211,0.2244,0.2252,0.2159,0.2159,0.2159,0,0,0.249,0.2481,0.2475,0.2456,0.2435,0.2419,0.2402,0.2379,0.2365,0.2324,0.2288,0.2275,0.2251,0.223,0.2221,0.2203,0.2227,0.2194,0.2197,0.2216,0.2248,0.2257,0.2265,0.2161,0.2161,0.216,0,0,0.2486,0.248,0.2472,0.2461,0.2442,0.242,0.2422,0.2384,0.2366,0.2336,0.2322,0.232,0.2264,0.2261,0.2251,0.2273,0.226,0.2262,0.2282,0.2314,0.2321,0.2328,0.236,0.237,0.2248,0.2248,0.2248,0,0.2492,0.2475,0.2465,0.2458,0.2449,0.2428,0.2415,0.2396,0.2353,0.2353,0.2329,0.2312,0.2287,0.2297,0.2301,0.2282,0.2294,0.2256,0.2318,0.2326,0.2333,0.2363,0.2374,0.2249,0.2249,0.2249,0.2249,0,0.2473,0.2469,0.2464,0.2449,0.2439,0.2422,0.2408,0.2396,0.2376,0.2362,0.2369,0.2347,0.2342,0.2335,0.2313,0.2355,0.2347,0.2329,0.2301,0.2343,0.2372,0.2383,0.2251,0.2251,0.225,0.225,0,0,0.2457,0.2453,0.2454,0.2447,0.2432,0.2417,0.2415,0.2405,0.2406,0.2387,0.2398,0.2394,0.2399,0.2395,0.2383,0.2401,0.2454,0.2378,0.2379,0.2404,0.2522,0.2409,0.241,0.2435,0.2437,0.2438,0.2522,0,0.2444,0.2435,0.2437,0.2422,0.2407,0.2409,0.2406,0.2404,0.2394,0.2398,0.2419,0.2419,0.2416,0.241,0.2439,0.2454,0.2483,0.2434,0.2486,0.2488,0.2376,0.2419,0.2158,0.22,0.2533,0.2534,0.2536,0,0.2411,0.2411,0.2403,0.2404,0.24,0.2398,0.2397,0.2392,0.2415,0.2408,0.244,0.2449,0.25,0.2476,0.2556,0.2519,0.2534,0.2543,0.2546,0.2446,0.2395,0.2215,0.2207,0.2553,0.2552,0.2551,0.255,0,0.2371,0.2381,0.2375,0.2374,0.2375,0.2386,0.2389,0.2402,0.2393,0.2427,0.2418,0.2492,0.25,0.2565,0.2579,0.2576,0.2646,0.2644,0.2568,0.2561,0.2354,0.2324,0.271,0.271,0.271,0.271,0.2709,0,0.2328,0.2319,0.2364,0.2352,0.235,0.2369,0.2366,0.2374,0.2392,0.2386,0.2428,0.2428,0.2516,0.2553,0.2601,0.2606,0.267,0.2592,0.2578,0.2351,0.2321,0.2637,0.2628,0.2713,0.2712,0.2712,0.2711,0,0.2256,0.2286,0.2277,0.2311,0.2323,0.232,0.2335,0.2331,0.2348,0.2347,0.2357,0.2389,0.2443,0.2511,0.2595,0.2591,0.2633,0.2611,0.2336,0.2286,0.2537,0.2528,0.2586,0.2582,0.258,0.2577,0.2575,0,0.2207,0.2202,0.2243,0.2244,0.2258,0.2269,0.2271,0.2299,0.2294,0.2313,0.2307,0.2349,0.234,0.2405,0.2425,0.2485,0.2565,0.2254,0.2209,0.2546,0.2527,0.2521,0.2516,0.1952,0.1945,0.1939,0.1935,0,0.211,0.2141,0.2136,0.2155,0.2168,0.2169,0.2185,0.2168,0.2204,0.2197,0.2181,0.2179,0.2211,0.21,0.2134,0.2159,0.2232,0.2142,0.256,0.2012,0.1951,0.1931,0.1946,0.1885,0.189,0.1893,0.1896,0.1898,0.203,0.2015,0.2033,0.2036,0.206,0.2051,0.2004,0.2021,0.199,0.1916,0.2009,0.1852,0.1852,0.173,0.178,0.1817,0.1981,0.1876,0.1892,0.1915,0.1814,0.1751,0.1629,0.1633,0.1636,0.1638,0.1641,0,0.1906,0.1913,0.1911,0.19,0.1882,0.1956,0.1923,0.1809,0.1732,0.1697,0.1646,0.1342,0.1269,0.1309,0.1271,0.1362,0.1396,0.134,0.1304,0.1349,0.1391,0.1266,0.0935,0.0934,0.0933,0.0933,0,0,0.1828,0.1786,0.179,0.1724,0.1742,0.1669,0.1634,0.1478,0.1371,0.1138,0.0989,0.104,0.108,0.0877,0.0971,0.0915,0.1142,0.0918,0.1457,0.1444,0.1485,0.1649,0.1499,0,0,0,0,0]},{"header":{"parameterUnit":"m.s-1","parameterCategory":2,"la1":30.2991,"la2":30.254,"lo1":-89.0895,"lo2":-89.0444,"dy":0.0017,"dx":0.0017,"nx":28,"ny":28,"refTime":"2023-04-26T15:00:00:Z","depth":"2","parameterNumber":3,"parameterNumberName":"V-component_of_CURRENTS"},"data":[0,0,0,0,0,0,0,0,0,0,0,0,0,0,0,0,0,0,0,0,0,0,0,0,0,0,0,0,0,0,0,0,0,0,0,0,0,0,0,0,0,0,0,0,0,0,0,0,0,0,0,0,0,0,0,0,0,0,0.0855,0.0854,0,0.0718,0.0716,0.0715,0.0588,0.0586,0.0585,0.0584,0.0501,0.05,0.0499,0,0,0,0,0,0,0,0,0,0,0,0,0,0.0907,0.0907,0.0855,0.0854,0.0852,0.0718,0.0716,0.0714,0.0588,0.0586,0.0585,0.0583,0.0501,0.05,0.0499,0,0,0,0,0,0,0,0,0,0,0,0,0,0.0836,0.0907,0.0856,0.0775,0.0767,0.0719,0.0716,0.0714,0.0588,0.0586,0.0584,0.0582,0.0501,0.05,0.0498,0.0529,0,0,0.0494,0.0493,0,0,0,0,0,0,0,0,0.0841,0.0834,0.0788,0.0781,0.0771,0.067,0.0704,0.0655,0.0589,0.0653,0.0584,0.0581,0.0566,0.0559,0.0533,0.0525,0.0521,0.0494,0.0493,0.0492,0.0492,0,0,0,0,0,0,0,0.0846,0.0839,0.0798,0.0787,0.0777,0.0712,0.07,0.0693,0.0621,0.0647,0.0638,0.0628,0.0561,0.0534,0.053,0.052,0.0494,0.0492,0.0492,0.0491,0.0429,0.0428,0,0,0,0,0,0,0.0876,0.0844,0.0803,0.0794,0.0805,0.0713,0.07,0.0703,0.062,0.0605,0.063,0.0623,0.0538,0.0532,0.0527,0.0476,0.0492,0.0491,0.049,0.043,0.0429,0.0428,0,0,0,0,0,0,0.0878,0.0874,0.0808,0.0817,0.0804,0.0715,0.0718,0.0701,0.0631,0.0606,0.0592,0.0573,0.0536,0.0529,0.0496,0.0476,0.049,0.0489,0.0431,0.043,0.0429,0.0429,0,0,0,0,0,0,0.088,0.0876,0.087,0.082,0.0805,0.0771,0.072,0.07,0.0632,0.0619,0.0555,0.0547,0.0534,0.0499,0.0495,0.0474,0.0488,0.0432,0.043,0.0429,0.043,0.0428,0.0426,0,0,0,0,0,0.0883,0.089,0.0871,0.0864,0.0807,0.0772,0.0757,0.0685,0.0631,0.061,0.0561,0.0546,0.0486,0.0498,0.0493,0.0471,0.0432,0.0431,0.0429,0.0431,0.0428,0.0426,0,0,0,0,0,0,0.0891,0.0877,0.0854,0.0851,0.0811,0.0751,0.072,0.0667,0.0607,0.0584,0.0546,0.0537,0.0501,0.0488,0.05,0.0448,0.0453,0.0451,0.0456,0.0454,0.0452,0.0465,0.0486,0,0,0,0,0,0.09,0.0906,0.0872,0.0861,0.0846,0.0774,0.074,0.0694,0.0644,0.061,0.0558,0.0515,0.0498,0.0476,0.0459,0.0436,0.0432,0.0415,0.0413,0.0411,0.0418,0.0394,0.0391,0.0423,0.0423,0.0423,0,0,0.0895,0.089,0.0886,0.0864,0.0822,0.0803,0.0746,0.0697,0.0663,0.0619,0.0543,0.0511,0.0492,0.0463,0.0444,0.0443,0.0401,0.0409,0.0408,0.0416,0.0392,0.0389,0.0387,0.0421,0.0422,0.0422,0,0,0.0904,0.0888,0.0898,0.0877,0.0832,0.0797,0.0778,0.0702,0.0649,0.0593,0.0554,0.0512,0.0456,0.0445,0.0436,0.0416,0.0397,0.0392,0.0388,0.0364,0.0362,0.036,0.0356,0.0353,0.0385,0.0385,0.0385,0,0.0891,0.0913,0.0888,0.0891,0.0871,0.0795,0.0786,0.0734,0.0646,0.0618,0.0568,0.0486,0.0455,0.0449,0.0424,0.0414,0.0397,0.04,0.0363,0.0361,0.0358,0.0355,0.0352,0.0385,0.0385,0.0385,0.0385,0,0.092,0.0921,0.0921,0.0911,0.0882,0.0863,0.0807,0.0755,0.0673,0.0619,0.056,0.0511,0.0462,0.0438,0.0417,0.0388,0.038,0.037,0.0372,0.0356,0.0353,0.035,0.0385,0.0385,0.0385,0.0385,0,0,0.0939,0.0943,0.0937,0.0947,0.0894,0.0883,0.0834,0.0788,0.0757,0.0652,0.0618,0.0545,0.0489,0.0475,0.0439,0.0403,0.0359,0.0363,0.0362,0.0367,0.0308,0.0344,0.0344,0.0328,0.0328,0.0327,0.0315,0,0.0965,0.0995,0.0973,0.0976,0.0994,0.0925,0.0891,0.0833,0.0761,0.0709,0.0641,0.0585,0.0513,0.0476,0.043,0.0393,0.0349,0.0364,0.0317,0.0317,0.0356,0.0341,0.0351,0.0343,0.0312,0.0312,0.0311,0,0.1011,0.1035,0.1047,0.1048,0.1041,0.1004,0.0957,0.0913,0.0835,0.0773,0.0702,0.0643,0.0582,0.0512,0.0427,0.0432,0.0356,0.0318,0.0316,0.035,0.0347,0.0353,0.0339,0.0307,0.0307,0.0307,0.0308,0,0.1081,0.109,0.1104,0.1101,0.1076,0.1042,0.0994,0.0918,0.0881,0.0798,0.0763,0.0691,0.0638,0.055,0.0451,0.042,0.0375,0.0333,0.0301,0.0304,0.0307,0.0311,0.0255,0.0255,0.0255,0.0255,0.0255,0,0.1148,0.1159,0.113,0.1143,0.1142,0.1086,0.1045,0.0991,0.0912,0.0875,0.078,0.0759,0.0631,0.059,0.049,0.0411,0.0401,0.0307,0.0301,0.0308,0.0313,0.0275,0.0278,0.0254,0.0255,0.0255,0.0255,0,0.1208,0.1197,0.1223,0.1194,0.1175,0.1156,0.1059,0.1044,0.0946,0.0902,0.0869,0.0799,0.0739,0.0656,0.0545,0.0466,0.0393,0.0357,0.039,0.0388,0.0323,0.0325,0.0313,0.0314,0.0315,0.0316,0.0316,0,0.1232,0.1254,0.1249,0.1251,0.1217,0.1173,0.1148,0.1055,0.1034,0.0933,0.0941,0.0868,0.0848,0.0748,0.0609,0.0492,0.0437,0.0405,0.0342,0.0332,0.0327,0.0328,0.033,0.0342,0.0343,0.0344,0.0344,0,0.1273,0.1256,0.1271,0.1283,0.1263,0.1269,0.1215,0.1222,0.1119,0.1095,0.1065,0.104,0.0907,0.0807,0.0654,0.0566,0.0433,0.0414,0.0395,0.0336,0.0361,0.0356,0.0356,0.035,0.0349,0.0349,0.0349,0.0348,0.1269,0.1279,0.1285,0.1296,0.1299,0.134,0.1349,0.1339,0.1341,0.1312,0.1264,0.121,0.1052,0.0875,0.0675,0.0444,0.0475,0.0389,0.0386,0.0382,0.0398,0.0424,0.0429,0.0429,0.0429,0.0428,0.0428,0,0.1266,0.1263,0.1289,0.1324,0.1372,0.1335,0.1378,0.1436,0.1477,0.1443,0.1436,0.1261,0.1151,0.0895,0.0548,0.0385,0.0335,0.0319,0.0281,0.0282,0.028,0.0286,0.0289,0.0287,0.0285,0.0284,0,0,0.1261,0.1278,0.1303,0.1378,0.1383,0.1415,0.1446,0.1552,0.1566,0.1555,0.1458,0.1557,0.1212,0.0959,0.0719,0.0457,0.0398,0.042,0.0568,0.0556,0.0554,0.0378,0.0397,0,0,0,0,0]}],[{"header":{"parameterUnit":"m.s-1","parameterCategory":2,"la1":30.2991,"la2":30.254,"lo1":-89.0895,"lo2":-89.0444,"dy":0.0017,"dx":0.0017,"nx":28,"ny":28,"refTime":"2023-04-26T15:00:00:Z","depth":"4","parameterNumber":2,"parameterNumberName":"U-component_of_CURRENTS"},"data":[0,0,0,0,0,0,0,0,0,0,0,0,0,0,0,0,0,0,0,0,0,0,0,0,0,0,0,0,0,0,0,0,0,0,0,0,0,0,0,0,0,0,0,0,0,0,0,0,0,0,0,0,0,0,0,0,0,0,-0.0221,-0.0219,0,-0.0028,-0.0026,-0.0023,0.0181,0.0184,0.0186,0.0189,0.046,0.0465,0.047,0,0,0,0,0,0,0,0,0,0,0,0,0,-0.0322,-0.0322,-0.0221,-0.0219,-0.0217,-0.0029,-0.0026,-0.0022,0.0181,0.0184,0.0187,0.019,0.0459,0.0464,0.047,0,0,0,0,0,0,0,0,0,0,0,0,0,-0.0216,-0.0322,-0.0222,-0.0096,-0.0083,-0.0029,-0.0025,-0.0022,0.018,0.0184,0.0188,0.0191,0.0457,0.0464,0.0471,0.0441,0,0,0.0493,0.0497,0,0,0,0,0,0,0,0,-0.0222,-0.0212,-0.0116,-0.0104,-0.009,0.0053,0.0038,0.0136,0.0179,0.0084,0.0189,0.0193,0.0326,0.0344,0.0377,0.0454,0.0465,0.0494,0.0498,0.0502,0.0504,0,0,0,0,0,0,0,-0.023,-0.0218,-0.0141,-0.0115,-0.0099,-0.0018,0.0001,0.0058,0.0186,0.0093,0.0107,0.0121,0.0335,0.0369,0.0385,0.0469,0.0494,0.05,0.0505,0.0508,0.0713,0.0714,0,0,0,0,0,0,-0.0271,-0.0226,-0.0147,-0.0135,-0.0152,-0.002,0.0002,0.0006,0.0184,0.0213,0.0118,0.013,0.0355,0.0376,0.0395,0.0577,0.0502,0.0508,0.0513,0.0712,0.0713,0.0715,0,0,0,0,0,0,-0.0274,-0.0266,-0.0155,-0.0178,-0.0159,-0.0023,-0.0019,0.0008,0.0152,0.0202,0.0234,0.0246,0.0358,0.0385,0.0539,0.0582,0.0512,0.0518,0.0711,0.0712,0.0714,0.0809,0,0,0,0,0,0,-0.0278,-0.0269,-0.0253,-0.0182,-0.0159,-0.0056,-0.0022,0.0009,0.0146,0.0167,0.0319,0.0342,0.0363,0.0528,0.0546,0.0591,0.0524,0.071,0.0712,0.0713,0.0804,0.0813,0.0821,0,0,0,0,0,-0.0282,-0.0264,-0.0254,-0.0243,-0.0152,-0.0053,-0.0031,0.008,0.0149,0.0224,0.0332,0.0344,0.0551,0.0537,0.0557,0.0605,0.0709,0.0711,0.0713,0.08,0.0812,0.0821,0,0,0,0,0,0,-0.0271,-0.0242,-0.0227,-0.0194,-0.0108,-0.0018,0.0049,0.0134,0.0278,0.0323,0.0389,0.0419,0.0557,0.0566,0.0548,0.0661,0.0618,0.0625,0.0677,0.0688,0.0696,0.0629,0.053,0,0,0,0,0,-0.0282,-0.027,-0.0207,-0.0171,-0.0133,-0.0025,0.004,0.0127,0.024,0.0315,0.0427,0.0509,0.0558,0.0623,0.0675,0.0763,0.0681,0.0792,0.08,0.0808,0.0763,0.0662,0.0655,0.0722,0.0722,0.0722,0,0,-0.0265,-0.0251,-0.0237,-0.017,-0.0102,-0.0028,0.003,0.0159,0.0247,0.0313,0.0504,0.0567,0.0591,0.0684,0.0741,0.0718,0.0757,0.0811,0.0817,0.0767,0.0663,0.0656,0.065,0.0724,0.0724,0.0723,0,0,-0.0236,-0.0215,-0.0193,-0.0126,-0.0023,0.0034,0.0095,0.0247,0.0345,0.0508,0.055,0.0626,0.0784,0.0763,0.077,0.0847,0.0807,0.0906,0.0905,0.081,0.0802,0.0794,0.0723,0.0708,0.0907,0.0908,0.0908,0,-0.021,-0.0188,-0.0155,-0.0104,-0.0049,0.0073,0.0148,0.0245,0.0448,0.0509,0.0589,0.0726,0.0778,0.0779,0.0823,0.086,0.0827,0.0876,0.0817,0.0807,0.0797,0.0726,0.0708,0.0913,0.0912,0.0911,0.0911,0,-0.0163,-0.0127,-0.0093,-0.0024,0.0046,0.0147,0.0247,0.0378,0.0515,0.06,0.0714,0.0761,0.0822,0.0855,0.0885,0.0847,0.0857,0.0844,0.0787,0.0796,0.0722,0.0701,0.0919,0.0918,0.0916,0.0915,0,0,-0.0119,-0.008,-0.0052,-0.0016,0.0105,0.018,0.0291,0.041,0.0499,0.0657,0.0715,0.0796,0.0838,0.0839,0.0862,0.0793,0.0733,0.0824,0.0817,0.0745,0.0565,0.0673,0.066,0.0744,0.0741,0.0737,0.0556,0,-0.0068,-0.0011,0.0006,0.0122,0.0176,0.0268,0.0352,0.0476,0.0595,0.0692,0.0692,0.0773,0.0823,0.0866,0.0806,0.0763,0.0679,0.0784,0.0571,0.0563,0.065,0.0638,0.0725,0.054,0.0535,0.0531,0.0529,0,0.0008,0.0024,0.0094,0.0172,0.0208,0.0294,0.0434,0.0519,0.0617,0.0696,0.0731,0.0783,0.0736,0.0756,0.0618,0.0713,0.0638,0.0572,0.0563,0.0598,0.0631,0.0517,0.049,0.0493,0.0496,0.0498,0.0501,0,0.0041,0.0118,0.0158,0.0196,0.0287,0.0354,0.0426,0.0547,0.0599,0.0679,0.0716,0.0707,0.0697,0.0591,0.0569,0.0594,0.0388,0.038,0.0368,0.0376,0.0287,0.0297,0.0194,0.0194,0.0194,0.0195,0.0195,0,0.0101,0.0156,0.0188,0.0228,0.0306,0.0375,0.0468,0.0548,0.0602,0.0641,0.0707,0.0707,0.0664,0.0605,0.0526,0.0428,0.0349,0.0339,0.0324,0.0342,0.0359,0.0275,0.0287,0.0188,0.0189,0.0191,0.0192,0,0.0143,0.0157,0.0212,0.029,0.0318,0.0384,0.0459,0.0516,0.0584,0.0606,0.0624,0.0683,0.0636,0.0581,0.0416,0.0392,0.0259,0.0222,0.0272,0.0267,0.0304,0.0323,0.0147,0.0149,0.0151,0.0152,0.0153,0,0.0153,0.0178,0.0236,0.0251,0.0292,0.0368,0.041,0.0495,0.0533,0.0594,0.0587,0.06,0.063,0.0454,0.0419,0.0262,0.0247,0.0194,0.0215,0.029,0.0292,0.0309,0.0325,0.0156,0.0156,0.0157,0.0157,0,0.0155,0.0181,0.0208,0.023,0.0279,0.0307,0.0381,0.0395,0.0482,0.0533,0.0552,0.0556,0.0505,0.0453,0.0387,0.0263,0.0249,0.0211,0.0205,0.0223,0.0299,0.0303,0.0317,0.0163,0.0162,0.0162,0.0162,0,0.0148,0.0159,0.0177,0.0203,0.0234,0.0249,0.0292,0.0341,0.0376,0.0469,0.0473,0.0466,0.05,0.045,0.0365,0.0313,0.0267,0.0239,0.023,0.0223,0.0348,0.0463,0.0334,0,0,0,0,0,0.0132,0.0127,0.0135,0.0156,0.0184,0.0198,0.0266,0.031,0.0397,0.0397,0.044,0.0406,0.0378,0.0379,0.0322,0.0364,0.0248,0.0303,0.0206,0.0196,0.019,0.0339,0,0,0,0,0,0,0.0113,0.0123,0.0116,0.0099,0.0102,0.0128,0.0165,0.0224,0.024,0.0329,0.0296,0.0386,0.0329,0.0368,0.0305,0.0305,0.0241,0.0314,0.0313,0.02,0.0194,0.0189,0.034,0,0,0,0,0]},{"header":{"parameterUnit":"m.s-1","parameterCategory":2,"la1":30.2991,"la2":30.254,"lo1":-89.0895,"lo2":-89.0444,"dy":0.0017,"dx":0.0017,"nx":28,"ny":28,"refTime":"2023-04-26T15:00:00:Z","depth":"4","parameterNumber":3,"parameterNumberName":"V-component_of_CURRENTS"},"data":[0,0,0,0,0,0,0,0,0,0,0,0,0,0,0,0,0,0,0,0,0,0,0,0,0,0,0,0,0,0,0,0,0,0,0,0,0,0,0,0,0,0,0,0,0,0,0,0,0,0,0,0,0,0,0,0,0,0,0.0464,0.0465,0,0.0463,0.0463,0.0462,0.0532,0.0535,0.0538,0.054,0.056,0.0558,0.0556,0,0,0,0,0,0,0,0,0,0,0,0,0,0.0392,0.0394,0.0464,0.0465,0.0466,0.0464,0.0463,0.0462,0.0532,0.0535,0.0538,0.0541,0.0561,0.0558,0.0556,0,0,0,0,0,0,0,0,0,0,0,0,0,0.0404,0.0394,0.0464,0.0506,0.051,0.0464,0.0463,0.0462,0.0531,0.0535,0.0539,0.0543,0.0561,0.0559,0.0556,0.0461,0,0,0.0547,0.0546,0,0,0,0,0,0,0,0,0.0403,0.0405,0.0499,0.0503,0.0508,0.0509,0.0445,0.0465,0.053,0.0515,0.054,0.0545,0.0547,0.0546,0.0525,0.0462,0.0463,0.0547,0.0545,0.0544,0.0543,0,0,0,0,0,0,0,0.0402,0.0405,0.0456,0.05,0.0505,0.048,0.0486,0.0448,0.0504,0.0517,0.0524,0.0535,0.0549,0.0528,0.0527,0.0463,0.0547,0.0545,0.0543,0.0542,0.0459,0.0459,0,0,0,0,0,0,0.0421,0.0405,0.0456,0.0457,0.0473,0.0479,0.0485,0.0498,0.0504,0.0511,0.0532,0.0538,0.0531,0.053,0.0528,0.061,0.0544,0.0541,0.054,0.046,0.0459,0.0459,0,0,0,0,0,0,0.0419,0.0425,0.0456,0.0437,0.044,0.0478,0.049,0.0496,0.0548,0.0516,0.0523,0.0587,0.0534,0.0532,0.0557,0.0604,0.054,0.0538,0.046,0.046,0.0459,0.065,0,0,0,0,0,0,0.0417,0.0424,0.0464,0.0438,0.0443,0.0471,0.0488,0.0494,0.0548,0.0559,0.0564,0.0566,0.0537,0.0561,0.0554,0.0599,0.0535,0.0461,0.046,0.0459,0.0644,0.0656,0.0666,0,0,0,0,0,0.0414,0.0443,0.0465,0.0473,0.0487,0.0473,0.0472,0.0505,0.0548,0.0566,0.0584,0.057,0.0549,0.0559,0.0551,0.0597,0.0462,0.046,0.0459,0.0639,0.0654,0.0665,0,0,0,0,0,0,0.0438,0.0452,0.0477,0.0513,0.0518,0.0489,0.0529,0.0537,0.056,0.0605,0.0573,0.0574,0.0607,0.0556,0.0568,0.0558,0.0497,0.0494,0.0636,0.0649,0.066,0.0639,0.0533,0,0,0,0,0,0.0458,0.0492,0.0488,0.0527,0.0544,0.0547,0.056,0.0579,0.0585,0.0604,0.0619,0.0609,0.0574,0.0586,0.0549,0.0554,0.0469,0.0566,0.0577,0.0587,0.0557,0.0433,0.0431,0.0455,0.0455,0.0455,0,0,0.0477,0.0497,0.0517,0.0536,0.0556,0.0564,0.0566,0.0612,0.0629,0.0598,0.0671,0.0656,0.0579,0.0592,0.0599,0.0576,0.0552,0.0585,0.0596,0.0559,0.0432,0.043,0.0428,0.0454,0.0454,0.0454,0,0,0.0515,0.0559,0.0596,0.061,0.0655,0.0631,0.066,0.0681,0.0719,0.0761,0.0732,0.0729,0.0736,0.0662,0.0624,0.0651,0.0607,0.068,0.0736,0.062,0.0618,0.0614,0.059,0.0582,0.0694,0.0695,0.0695,0,0.0558,0.0588,0.0603,0.0643,0.0658,0.0671,0.0693,0.0706,0.074,0.0765,0.0821,0.077,0.0738,0.0659,0.0701,0.0675,0.0651,0.0715,0.0638,0.0631,0.0624,0.0599,0.0588,0.0704,0.0703,0.0702,0.0701,0,0.0592,0.0646,0.0677,0.0718,0.0723,0.0758,0.0762,0.0813,0.0874,0.0881,0.0899,0.0844,0.0805,0.0806,0.0786,0.0719,0.0739,0.0669,0.062,0.0634,0.0607,0.0593,0.0717,0.0714,0.0711,0.0709,0,0,0.0644,0.0689,0.0718,0.0751,0.0774,0.0781,0.0817,0.0825,0.0867,0.092,0.092,0.0894,0.0903,0.0848,0.0804,0.0727,0.0709,0.0729,0.0719,0.0733,0.0555,0.0559,0.0543,0.0667,0.0663,0.066,0.059,0,0.0688,0.0738,0.0748,0.0808,0.0828,0.085,0.087,0.0893,0.0927,0.0942,0.0885,0.0881,0.0902,0.0911,0.0838,0.0713,0.0667,0.074,0.051,0.0503,0.0525,0.0521,0.0649,0.0578,0.0575,0.0572,0.057,0,0.0738,0.0755,0.0798,0.085,0.087,0.0918,0.0952,0.0969,0.0965,0.0992,0.097,0.0945,0.0852,0.085,0.0674,0.075,0.0683,0.0591,0.0584,0.049,0.0474,0.053,0.0542,0.0544,0.0546,0.0548,0.055,0,0.0744,0.0814,0.0839,0.0861,0.0898,0.0971,0.1005,0.1027,0.1023,0.1019,0.1001,0.0926,0.0858,0.0747,0.0636,0.0678,0.0416,0.0416,0.035,0.0353,0.0291,0.0294,0.0263,0.0263,0.0263,0.0264,0.0264,0,0.0779,0.0828,0.088,0.0916,0.0977,0.1019,0.1082,0.1114,0.1089,0.1071,0.104,0.0963,0.0833,0.0696,0.0613,0.0445,0.0398,0.0346,0.0306,0.0387,0.04,0.0287,0.029,0.0261,0.0262,0.0262,0.0263,0,0.0807,0.0827,0.0881,0.096,0.0991,0.106,0.1118,0.1151,0.1138,0.1085,0.108,0.0963,0.0819,0.0667,0.0449,0.0398,0.0231,0.0178,0.0323,0.0296,0.0278,0.0292,0.0128,0.0127,0.0126,0.0125,0.0125,0,0.0814,0.0838,0.0916,0.0951,0.1023,0.1102,0.1151,0.1175,0.1183,0.1085,0.1048,0.0902,0.0826,0.0507,0.0369,0.0183,0.0153,0.0124,0.0174,0.0271,0.025,0.0265,0.028,0.0123,0.0123,0.0123,0.0122,0,0.0824,0.0873,0.0911,0.0975,0.1066,0.1098,0.119,0.1159,0.1172,0.1134,0.1017,0.0889,0.0684,0.0501,0.0337,0.0204,0.0175,0.0115,0.0118,0.0164,0.0263,0.0247,0.0262,0.0119,0.012,0.012,0.012,0,0.0845,0.0876,0.0938,0.0997,0.1075,0.112,0.1138,0.1156,0.1131,0.1059,0.1018,0.0821,0.0729,0.0506,0.0349,0.0221,0.0218,0.0237,0.0234,0.0235,0.0284,0.0428,0.0284,0,0,0,0,0,0.0853,0.0889,0.0944,0.1015,0.1091,0.1141,0.117,0.1173,0.1164,0.1098,0.1061,0.0894,0.0659,0.0526,0.0395,0.0335,0.0192,0.0185,0.0211,0.0102,0.0105,0.0142,0,0,0,0,0,0,0.0862,0.0918,0.0941,0.1022,0.1076,0.1159,0.1178,0.1163,0.1112,0.1081,0.0928,0.0913,0.0645,0.0733,0.0407,0.0365,0.0379,0.0077,0.0076,0.0099,0.0103,0.0106,0.0145,0,0,0,0,0]}]]